Date String (YYYY-MM-DD hh:mm:ss) UTC,Instrument flags,Ambient pressure (hPa),Sample flow (lpm),Bypass flow (lpm),Sample temperature (°C),Ambient temperature (°C),ASC tube jacket temperature (°C),LED temperature (°C),Box temperature (°C),Sample RH (%),Span deviation,Mass concentration (μg/m³),Mass concentration (μg/m³),Mass concentration (μg/m³)
DateTimeUTC,F1_M11,P_M11,Q1_M11,Q2_M11,T1_M11,T2_M11,T3_M11,T4_M11,T5_M11,U1_M11,ZSPAN_M11,X2_M11,X0_M11,X1_M11
2022-09-03 20:00:00,,0834.3,5.01,0.00,29.5,26.5,00.0,38.1,31.3,27.1,0000.0,0009.56,0022.28,0007.91
2022-09-03 20:01:00,,0834.2,4.99,0.00,29.4,26.7,00.0,38.1,31.2,27.4,0000.0,0009.58,0022.59,0007.95
2022-09-03 20:02:00,,0834.2,5.01,0.00,29.4,27.0,00.0,38.1,31.1,27.8,0000.0,0009.59,0023.12,0007.99
2022-09-03 20:03:00,,0834.2,4.99,0.00,29.4,27.3,00.0,38.0,31.1,27.6,0000.0,0009.55,0023.03,0008.01
2022-09-03 20:04:00,,0834.2,5.00,0.00,29.4,27.6,00.0,38.1,31.2,27.2,0000.0,0009.56,0022.63,0008.04
2022-09-03 20:05:00,,0834.2,5.01,0.00,29.4,27.9,00.0,38.1,31.3,27.7,0000.0,0009.56,0021.59,0008.05
2022-09-03 20:06:00,,0834.2,5.01,0.00,29.5,28.1,00.0,38.1,31.4,27.7,0000.0,0009.57,0021.23,0008.07
2022-09-03 20:07:00,,0834.1,4.98,0.00,29.5,28.3,00.0,38.1,31.4,27.2,0000.0,0009.60,0021.13,0008.07
2022-09-03 20:08:00,,0834.2,5.01,0.00,29.5,28.3,00.0,38.1,31.5,27.4,0000.0,0009.58,0020.62,0008.07
2022-09-03 20:09:00,,0834.2,4.99,0.00,29.5,27.4,00.0,38.1,31.4,27.5,0000.0,0009.61,0020.31,0008.08
2022-09-03 20:10:00,,0834.1,5.00,0.00,29.5,26.5,00.0,38.1,31.2,27.7,0000.0,0009.58,0020.26,0008.10
2022-09-03 20:11:00,,0834.1,5.00,0.00,29.4,26.6,00.0,38.1,31.2,27.9,0000.0,0009.60,0020.68,0008.12
2022-09-03 20:12:00,,0834.1,5.01,0.00,29.4,26.8,00.0,38.1,31.1,27.9,0000.0,0009.66,0021.12,0008.13
2022-09-03 20:13:00,,0834.0,5.00,0.00,29.4,27.1,00.0,38.0,31.1,27.9,0000.0,0009.65,0021.84,0008.13
2022-09-03 20:14:00,,0834.1,5.01,0.00,29.4,27.4,00.0,38.0,31.1,27.8,0000.0,0009.69,0022.34,0008.14
2022-09-03 20:15:00,,0834.1,5.00,0.00,29.4,27.7,00.0,38.0,31.2,27.6,0000.0,0009.72,0022.42,0008.16
2022-09-03 20:16:00,,0834.1,4.98,0.00,29.4,27.9,00.0,38.1,31.3,27.7,0000.0,0009.79,0023.63,0008.18
2022-09-03 20:17:00,,0834.1,5.00,0.00,29.4,28.1,00.0,38.1,31.4,27.2,0000.0,0009.85,0024.05,0008.18
2022-09-03 20:18:00,,0834.1,5.00,0.00,29.5,28.3,00.0,38.1,31.4,27.3,0000.0,0009.87,0025.42,0008.19
2022-09-03 20:19:00,,0834.1,5.01,0.00,29.5,28.5,00.0,38.1,31.5,27.4,0000.0,0009.90,0025.60,0008.20
2022-09-03 20:20:00,,0834.1,5.00,0.00,29.6,27.7,00.0,38.1,31.5,27.3,0000.0,0009.90,0025.37,0008.20
2022-09-03 20:21:00,,0834.0,5.00,0.00,29.5,26.5,00.0,38.1,31.3,27.3,0000.0,0009.88,0025.86,0008.18
2022-09-03 20:22:00,,0834.0,5.00,0.00,29.5,26.5,00.0,38.1,31.3,27.2,0000.0,0009.85,0026.22,0008.16
2022-09-03 20:23:00,,0834.0,4.99,0.00,29.4,26.7,00.0,38.1,31.1,27.1,0000.0,0009.84,0025.11,0008.14
2022-09-03 20:24:00,,0834.0,5.00,0.00,29.4,27.1,00.0,38.0,31.1,26.6,0000.0,0009.75,0023.96,0008.11
2022-09-03 20:25:00,,0834.0,5.00,0.00,29.4,27.4,00.0,38.0,31.2,26.8,0000.0,0009.65,0023.26,0008.05
2022-09-03 20:26:00,,0834.0,5.01,0.00,29.4,27.7,00.0,38.0,31.3,27.0,0000.0,0009.57,0023.29,0007.99
2022-09-03 20:27:00,,0834.0,4.98,0.00,29.4,27.9,00.0,38.1,31.3,27.0,0000.0,0009.47,0022.90,0007.93
2022-09-03 20:28:00,,0834.0,5.01,0.00,29.5,28.2,00.0,38.1,31.4,26.9,0000.0,0009.32,0024.73,0007.88
2022-09-03 20:29:00,,0834.0,5.00,0.00,29.5,28.3,00.0,38.1,31.5,26.9,0000.0,0009.29,0023.86,0007.84
2022-09-03 20:30:00,,0834.0,4.99,0.00,29.6,28.3,00.0,38.1,31.5,26.9,0000.0,0009.29,0023.53,0007.81
2022-09-03 20:31:00,,0834.0,5.01,0.00,29.5,27.2,00.0,38.1,31.4,26.8,0000.0,0009.23,0024.22,0007.76
2022-09-03 20:32:00,,0833.9,4.98,0.00,29.5,26.5,00.0,38.1,31.3,26.8,0000.0,0009.23,0024.16,0007.74
2022-09-03 20:33:00,,0833.9,5.01,0.00,29.5,26.6,00.0,38.1,31.3,27.0,0000.0,0009.22,0023.75,0007.71
2022-09-03 20:34:00,,0833.9,5.00,0.00,29.4,26.9,00.0,38.1,31.1,27.1,0000.0,0009.16,0023.89,0007.69
2022-09-03 20:35:00,,0833.9,5.01,0.00,29.4,27.2,00.0,38.0,31.1,27.0,0000.0,0009.20,0024.51,0007.67
2022-09-03 20:36:00,,0833.9,5.00,0.00,29.4,27.5,00.0,38.0,31.2,27.1,0000.0,0009.24,0023.97,0007.68
2022-09-03 20:37:00,,0833.8,5.01,0.00,29.4,27.8,00.0,38.0,31.3,27.1,0000.0,0009.28,0024.16,0007.68
2022-09-03 20:38:00,,0833.8,4.98,0.00,29.5,28.1,00.0,38.1,31.4,27.3,0000.0,0009.25,0023.46,0007.67
2022-09-03 20:39:00,,0833.8,5.01,0.00,29.5,28.3,00.0,38.1,31.4,26.9,0000.0,0009.23,0021.64,0007.65
2022-09-03 20:40:00,,0833.9,5.01,0.00,29.5,28.4,00.0,38.1,31.5,26.6,0000.0,0009.16,0021.31,0007.63
2022-09-03 20:41:00,,0833.9,4.97,0.00,29.6,28.0,00.0,38.1,31.5,26.4,0000.0,0009.12,0021.24,0007.61
2022-09-03 20:42:00,,0833.9,5.01,0.00,29.5,26.7,00.0,38.1,31.3,26.5,0000.0,0009.08,0020.21,0007.60
2022-09-03 20:43:00,,0833.8,4.99,0.00,29.5,26.4,00.0,38.1,31.3,26.7,0000.0,0009.04,0020.55,0007.59
2022-09-03 20:44:00,,0833.8,5.00,0.00,29.4,26.6,00.0,38.1,31.2,26.8,0000.0,0009.00,0020.72,0007.59
2022-09-03 20:45:00,,0833.8,5.01,0.00,29.4,26.9,00.0,38.0,31.1,27.1,0000.0,0008.98,0020.46,0007.58
2022-09-03 20:46:00,,0833.8,5.00,0.00,29.4,27.2,00.0,38.0,31.1,26.9,0000.0,0008.94,0019.61,0007.58
2022-09-03 20:47:00,,0833.8,5.01,0.00,29.4,27.5,00.0,38.0,31.2,26.9,0000.0,0008.98,0020.27,0007.59
2022-09-03 20:48:00,,0833.8,5.00,0.00,29.4,27.8,00.0,38.0,31.3,26.9,0000.0,0008.94,0019.87,0007.60
2022-09-03 20:49:00,,0833.7,4.99,0.00,29.5,28.1,00.0,38.1,31.4,27.1,0000.0,0008.98,0020.58,0007.60
2022-09-03 20:50:00,,0833.7,5.01,0.00,29.5,28.3,00.0,38.1,31.4,27.0,0000.0,0009.03,0019.21,0007.61
2022-09-03 20:51:00,,0833.7,4.98,0.00,29.5,28.1,00.0,38.1,31.4,27.0,0000.0,0009.06,0018.84,0007.62
2022-09-03 20:52:00,,0833.6,5.01,0.00,29.5,27.0,00.0,38.1,31.3,26.8,0000.0,0009.04,0019.96,0007.63
2022-09-03 20:53:00,,0833.6,5.00,0.00,29.5,26.4,00.0,38.1,31.3,27.0,0000.0,0009.02,0019.75,0007.62
2022-09-03 20:54:00,,0833.7,4.99,0.00,29.4,26.7,00.0,38.0,31.2,27.1,0000.0,0009.02,0019.00,0007.62
2022-09-03 20:55:00,,0833.6,5.01,0.00,29.4,26.9,00.0,38.0,31.1,27.4,0000.0,0009.09,0019.13,0007.63
2022-09-03 20:56:00,,0833.6,4.99,0.00,29.4,27.3,00.0,38.0,31.1,27.3,0000.0,0009.12,0020.44,0007.64
2022-09-03 20:57:00,,0833.6,5.01,0.00,29.4,27.6,00.0,38.0,31.2,27.5,0000.0,0009.17,0020.54,0007.64
2022-09-03 20:58:00,,0833.6,5.01,0.00,29.4,27.8,00.0,38.0,31.2,27.8,0000.0,0009.17,0020.05,0007.65
2022-09-03 20:59:00,,0833.6,4.98,0.00,29.4,28.1,00.0,38.0,31.3,27.6,0000.0,0009.14,0020.49,0007.63
